This is the latest recevied weather packets stored in our database for station/object YO8SDE-8. If no packets are shown the sender has not sent any weather packets the latest 10 day(s).
| Time | Temp. | Humidity | Pressure | Rain* | Wind** | Luminosity | Snow |
|---|---|---|---|---|---|---|---|
| 1778003459 | 18.89° C | 40% | 999.5 hPa | 0 mm | - | - | - |
| 1778003159 | 19.44° C | 39% | 999.5 hPa | 0 mm | - | - | - |
| 1778002859 | 20° C | 40% | 999.4 hPa | 0 mm | - | - | - |
| 1778002559 | 20.56° C | 38% | 999.5 hPa | 0 mm | - | - | - |
| 1778002259 | 20.56° C | 37% | 999.3 hPa | 0 mm | - | - | - |
| 1778001959 | 21.11° C | 37% | 999.3 hPa | 0 mm | - | - | - |
| 1778001659 | 22.22° C | 35% | 999.2 hPa | 0 mm | - | - | - |
| 1778001359 | 22.78° C | 34% | 999.2 hPa | 0 mm | - | - | - |
| 1778001059 | 23.33° C | 33% | 999.1 hPa | 0 mm | - | - | - |
| 1778000759 | 23.33° C | 32% | 999 hPa | 0 mm | - | - | - |
| 1778000460 | 23.89° C | 31% | 999 hPa | 0 mm | - | - | - |
| 1778000159 | 23.89° C | 30% | 999.2 hPa | 0 mm | - | - | - |
| 1777999859 | 24.44° C | 30% | 999.1 hPa | 0 mm | - | - | - |
| 1777999559 | 24.44° C | 29% | 999.1 hPa | 0 mm | - | - | - |
| 1777999260 | 25° C | 29% | 999.1 hPa | 0 mm | - | - | - |
| 1777998960 | 25.56° C | 28% | 999 hPa | 0 mm | - | - | - |
| 1777998660 | 26.11° C | 27% | 999.1 hPa | 0 mm | - | - | - |
| 1777998360 | 26.67° C | 27% | 999 hPa | 0 mm | - | - | - |
| 1777998060 | 27.78° C | 26% | 999.1 hPa | 0 mm | - | - | - |
| 1777997760 | 28.33° C | 26% | 999 hPa | 0 mm | - | - | - |
| 1777997460 | 28.89° C | 25% | 999 hPa | 0 mm | - | - | - |
| 1777997160 | 29.44° C | 23% | 999.1 hPa | 0 mm | - | - | - |
| 1777996860 | 30° C | 22% | 999 hPa | 0 mm | - | - | - |
| 1777996560 | 30.56° C | 22% | 999.1 hPa | 0 mm | - | - | - |
| 1777996260 | 30.56° C | 22% | 999.2 hPa | 0 mm | - | - | - |
* Rain latest hour (hover to see other rain measurements)
** Current wind speed in m/s (hover to see current wind gust speed)